Location: Arboyeti
(42.1122°N, 44.6017°E)
Time: 20:37:04
(UTC+00:00)

MetOp-A - Pass Details

Date: 19 April 2021
Orbit: 819 x 821 km, 98.5° (Epoch: 18 May)

Event Time Altitude Azimuth Distance (km) Brightness Sun altitude
Rises 16:29:20 0° 161° (SSE) 3,339 6.9 -8.1°
Reaches altitude 10° 16:31:40 10° 160° (SSE) 2,410 6.2 -8.5°
Maximum altitude 16:37:00 79° 75° (ENE) 841 4.1 -9.4°
Drops below altitude 10° 16:42:22 10° 349° (N) 2,425 7.1 -10.3°
Sets 16:44:43 0° 348° (NNW) 3,362 7.9 -10.7°
